Terug naar catalogus

SWARM C

ActiefWetenschapPO
NORAD 39453·PAYLOAD·🇪🇺 EU

Gelanceerd Nov 22, 2013 vanaf Plesetsk Cosmodrome

Loading…

Volgende Passages (komende 24 uur)

TLE

VersSource: CelesTrak SupGP

Epoch: Sep 14, 2026, 00:00 UTC

1 39453C 13067C   26257.00000000  .00009691  00000+0  16889-3 0  2579
2 39453  87.3361  21.8245 0002429 111.6715 155.3581 15.50748708    19

Volg SWARM C in realtime met AllMySat

Download on the App Store